{"data":{"norad_id":47604,"intl_designator":"2021-009BJ","name":"STARLINK-2021","alt_names":[],"object_type":"PAYLOAD","status":"ACTIVE","operator":null,"country":"US","launch_date":"2021-02-04","launch_site_code":"AFETR","launch_vehicle":null,"mission":null,"orbit_class":"UNKNOWN","rcs_meters":null,"size_class":null,"mass_kg":null,"dimensions":null,"purposes":["comms"],"wikipedia_slug":null,"has_3d_model":false,"image_url":null,"decayed_at":null,"tle_current":{"epoch":"2026-05-25T00:00:02.000160Z","epoch_age_seconds":71156,"freshness":"FRESH","line1":"1 47604U 21009BJ  26145.00002315  .00190915  00000+0  80930-3 0  9999","line2":"2 47604  53.0355 316.3969 0003212 298.4247 274.1479 15.84282606  5804","mean_motion":15.84282606,"eccentricity":0.0003212,"inclination_deg":53.0355,"raan_deg":316.3969,"arg_perigee_deg":298.4247,"mean_anomaly_deg":274.1479,"bstar":0.0008093,"rev_number":580,"period_min":90.892874449699,"perigee_km":316.19459572868,"apogee_km":320.49641609047,"semimajor_km":6696.4825059096,"source":"CELESTRAK","updated_at":"2026-05-25T13:38:16.559006Z"}}}